Date,TemperatureHighF,TemperatureAvgF,TemperatureLowF,DewpointHighF,DewpointAvgF,DewpointLowF,HumidityHigh,HumidityAvg,HumidityLow,PressureMaxIn,PressureMinIn,WindSpeedMaxMPH,WindSpeedAvgMPH,GustSpeedMaxMPH,PrecipitationSumIn
2014-1-1,45.5,42.0,37.1,42.9,39.4,34.4,93,91,88,30.30,30.15,1,0,1,0.01
2014-1-2,47.7,44.7,42.1,43.7,41.7,39.4,93,89,81,30.14,29.80,10,2,10,0.39
2014-1-3,49.7,41.7,38.0,42.9,37.7,34.8,92,86,74,30.24,29.89,7,1,7,0.01
2014-1-4,52.2,38.5,33.3,41.1,33.4,28.6,89,82,66,30.35,30.25,2,0,2,0.01
2014-1-5,49.0,36.1,29.0,38.8,30.7,25.3,89,81,68,30.38,30.22,1,0,1,0.00
2014-1-6,42.8,36.9,31.7,36.4,31.7,28.0,88,82,67,30.21,29.91,4,1,4,0.01
2014-1-7,45.9,42.7,40.0,43.7,39.4,34.1,92,88,77,29.88,29.19,4,1,4,0.30
2014-2-16,44.3,42.9,41.0,40.2,39.3,37.5,90,87,77,29.82,29.78,23,5,23,0.00
2014-2-17,46.1,41.7,38.5,41.4,38.2,35.8,93,88,77,29.98,29.74,19,5,19,0.00
2014-2-18,45.4,42.7,39.4,42.8,39.1,35.2,92,87,81,29.99,29.59,20,5,20,0.00
2014-2-19,46.3,41.1,38.5,38.1,36.0,34.9,87,82,71,30.17,29.89,14,4,14,0.00
2014-2-20,50.4,44.4,39.6,41.3,39.0,35.6,89,82,66,30.25,30.03,14,3,14,0.00
2014-2-21,43.2,40.6,38.7,39.0,37.0,35.1,89,87,85,30.34,30.24,5,0,5,0.00
2014-2-22,41.4,37.6,35.3,37.7,34.4,31.9,91,88,85,30.27,30.11,6,1,6,0.00
2014-2-23,43.6,41.0,37.8,40.6,38.2,35.4,91,89,88,30.11,29.98,5,0,5,0.00
2014-2-24,44.1,40.9,38.3,41.0,38.1,35.6,92,90,88,30.15,30.07,5,0,5,0.00
2014-2-25,56.5,45.0,38.2,47.7,38.0,34.0,92,78,54,30.17,30.03,11,1,11,0.00
2014-2-26,63.9,45.9,41.2,43.6,35.8,33.2,74,68,46,30.03,29.79,7,1,7,0.00
2014-2-27,58.0,51.9,42.5,43.4,41.0,36.7,81,67,56,29.80,29.70,8,1,8,0.00
2014-2-28,61.4,48.5,39.6,46.9,38.9,29.1,85,70,54,29.79,29.56,7,1,7,0.00
2014-3-1,42.5,40.0,37.8,32.7,30.8,28.5,77,69,61,29.73,29.59,8,1,8,0.00
2014-3-2,46.3,39.8,36.2,44.6,36.1,30.9,94,87,76,29.77,29.58,14,2,14,0.00
2014-3-3,54.2,48.8,45.7,49.8,44.9,43.3,93,87,72,29.94,29.72,16,4,16,0.00
2014-3-4,51.5,48.7,44.6,48.7,45.9,41.3,92,90,87,30.00,29.86,13,3,13,0.00
2014-3-5,60.5,52.7,48.4,54.8,49.7,46.2,95,90,79,29.86,29.48,14,3,14,0.00
2014-3-6,53.8,50.3,48.4,48.6,46.1,44.4,91,86,80,30.10,29.54,16,6,18,0.00
2014-3-7,58.5,50.6,44.3,46.5,43.6,38.7,87,77,58,30.32,30.10,14,3,14,0.00
2014-3-8,52.9,48.1,41.4,51.2,43.9,36.5,94,85,75,30.16,29.78,15,1,15,0.00
2014-3-9,58.9,52.8,49.5,51.7,48.4,45.7,93,85,72,30.07,29.85,16,3,16,0.00
2014-3-10,52.0,48.3,45.7,47.0,44.6,42.2,90,87,82,30.49,29.99,5,1,6,0.00
2014-3-11,64.1,48.5,40.0,48.4,41.2,35.7,91,77,51,30.63,30.49,5,1,5,0.00
2014-3-12,66.6,48.3,37.1,47.2,38.1,32.7,87,70,42,30.49,30.20,4,0,6,0.00
2014-3-13,61.9,46.4,39.2,45.5,38.2,33.5,86,74,52,30.22,30.05,8,1,8,0.00
2014-3-14,58.9,53.0,45.4,47.6,43.0,37.5,90,69,57,30.39,29.97,13,2,13,0.00
2014-3-15,60.8,50.0,42.3,49.6,42.8,36.4,90,77,55,30.38,30.22,11,2,11,0.00
2014-3-16,51.3,46.6,41.2,48.7,43.8,38.3,91,90,87,30.25,30.02,12,2,12,0.00
2014-3-17,49.1,43.6,39.4,41.9,38.4,34.8,91,82,69,30.38,30.03,6,1,7,0.00
2014-3-18,50.4,45.2,40.0,43.6,39.4,34.3,85,80,74,30.38,30.20,7,1,7,0.00
2014-3-19,50.8,44.2,36.7,45.0,40.3,33.5,91,86,74,30.25,30.05,15,3,15,0.00
2014-3-20,55.8,40.6,34.9,41.3,35.1,31.3,91,82,54,30.41,30.25,7,1,7,0.00
2014-3-21,58.0,49.6,36.0,40.2,35.6,30.6,84,59,45,30.38,30.33,6,1,6,0.00
2014-3-22,55.8,46.9,33.5,39.8,34.5,27.9,80,63,46,30.36,30.25,2,0,2,0.00
2014-3-23,63.2,49.8,41.6,42.2,37.6,34.0,79,64,45,30.38,30.29,8,1,8,0.00
2014-3-24,59.6,51.3,40.0,43.0,37.8,34.9,82,62,46,30.16,29.94,6,1,6,0.01
2014-3-25,56.9,50.3,45.9,50.2,42.6,33.4,85,75,44,29.93,29.58,18,5,18,0.05
2014-3-26,52.6,46.3,42.1,44.9,41.1,37.0,86,82,73,29.68,29.56,7,1,7,0.00
2014-3-27,56.5,48.5,44.3,46.7,42.8,40.1,89,81,67,29.93,29.62,11,2,11,0.00
2014-3-28,51.3,47.3,45.4,48.2,43.4,40.2,90,86,82,29.94,29.73,9,2,9,0.00
2014-3-29,50.2,46.7,44.8,46.5,43.1,41.6,91,87,83,29.85,29.74,14,3,14,0.00
2014-3-30,56.5,47.6,41.4,42.6,39.8,35.2,91,75,57,30.04,29.85,17,4,17,0.00
2014-3-31,66.2,49.3,36.0,45.6,37.2,31.3,86,66,33,30.03,29.76,12,1,12,0.01
2014-4-1,63.7,51.0,41.8,45.1,39.6,35.6,83,66,44,29.95,29.76,8,1,8,0.00
2014-4-2,58.7,47.1,45.0,42.0,39.9,37.0,84,77,50,30.06,29.94,9,2,9,0.00
2014-4-3,57.2,48.2,43.0,44.3,40.2,36.6,83,74,51,30.05,29.93,12,2,12,0.07
2014-4-4,61.2,49.6,43.2,44.1,40.7,38.3,86,72,48,30.02,29.95,12,4,13,0.00
2014-4-5,47.3,46.8,46.1,42.8,41.8,40.7,88,83,78,30.04,30.01,5,1,5,0.02
2014-4-11,62.8,56.5,48.6,46.8,44.3,40.2,76,64,55,30.20,30.08,6,2,6,0.01
2014-4-12,68.4,52.9,45.7,47.9,42.0,37.9,81,67,45,30.23,30.11,8,1,8,0.00
2014-4-13,58.9,46.3,44.1,37.8,36.2,33.6,74,68,46,30.26,30.23,0,0,0,0.00
2014-4-14,49.9,49.0,48.1,33.4,33.2,33.0,56,54,53,30.22,30.21,0,0,0,0.00
2014-4-19,53.6,48.6,42.8,47.9,42.9,37.4,88,81,67,30.20,29.81,15,4,15,0.38
2014-4-20,63.5,56.3,43.9,43.7,41.0,38.0,86,58,44,30.34,30.17,9,2,9,0.02
2014-4-21,47.7,47.2,47.0,38.9,38.5,38.4,72,72,71,30.18,30.17,0,0,0,0.00
2014-4-25,69.8,51.9,41.6,45.8,39.7,35.0,86,65,39,29.94,29.86,5,1,5,0.65
2014-4-26,60.8,49.9,43.0,41.3,38.0,32.6,84,66,39,29.89,29.68,14,3,14,0.22
2014-4-27,56.0,47.9,42.7,42.2,40.4,38.3,88,76,56,30.15,29.69,18,5,18,0.01
2014-4-28,68.6,52.8,41.4,45.8,39.7,35.7,84,64,39,30.41,30.15,8,2,8,0.01
2014-4-29,83.2,62.4,45.7,44.6,38.5,32.3,78,47,21,30.53,30.41,11,2,11,0.00
2014-4-30,92.5,69.4,52.2,46.7,40.3,32.5,55,37,18,30.45,30.21,7,1,7,0.00
2014-5-1,94.5,71.3,52.9,52.8,45.2,40.8,66,43,19,30.21,30.00,10,1,10,0.00
2014-5-2,74.0,64.2,56.0,52.2,47.4,38.7,73,56,37,30.10,29.95,12,4,13,0.01
2014-5-3,61.9,54.4,50.0,50.2,46.0,43.5,87,74,54,29.99,29.79,14,3,14,0.97
2014-5-4,57.2,51.5,48.8,50.8,47.3,44.7,89,86,77,29.91,29.78,11,2,11,0.17
2014-5-5,64.1,52.1,48.2,51.6,47.4,45.4,91,85,63,30.07,29.91,10,3,10,0.01
2014-5-6,64.4,52.9,49.0,49.4,45.7,41.2,86,77,54,30.10,30.03,5,1,5,0.01
2014-5-7,73.6,57.4,44.3,50.2,44.4,38.5,84,64,42,30.10,29.91,6,1,6,0.00
2014-5-8,59.4,52.9,48.2,50.2,45.3,40.6,89,76,62,29.94,29.68,8,1,8,0.48
2014-5-9,55.8,49.9,47.2,45.4,43.9,41.7,87,80,67,30.05,29.78,10,5,10,0.02
2014-5-10,59.4,53.5,45.2,48.2,45.4,40.9,88,75,64,30.32,30.05,6,1,6,0.01
2014-5-11,73.8,50.5,43.2,50.0,43.0,38.6,88,77,43,30.38,30.31,4,0,4,0.00
2014-5-12,85.3,66.0,48.4,47.6,42.9,38.0,82,50,21,30.41,30.31,8,1,8,0.04
2014-5-13,88.4,63.0,53.6,48.9,43.8,40.3,64,52,23,30.42,30.34,4,1,4,0.00
2014-5-14,91.1,71.3,54.4,54.9,50.2,43.9,72,49,27,30.37,30.15,5,1,5,0.00
2014-5-15,89.3,70.6,56.9,59.5,50.8,36.9,74,52,32,30.15,29.99,14,1,14,0.00
2014-5-16,72.9,61.8,54.0,50.8,47.2,41.1,74,60,43,30.17,30.10,14,3,14,0.00
2014-5-17,71.3,61.2,54.7,49.6,47.5,45.2,77,62,43,30.13,29.92,9,1,9,0.01
2014-5-18,77.6,59.3,50.0,52.7,48.1,42.8,82,68,40,29.95,29.86,12,2,12,0.00
2014-5-19,77.2,61.4,52.6,51.5,48.3,44.0,80,64,38,30.12,29.95,7,1,7,0.00
2014-5-20,81.7,63.1,49.3,55.9,48.4,42.0,82,61,37,30.19,30.11,6,1,6,0.00
2014-5-21,73.1,60.6,52.6,53.6,47.8,43.7,74,64,48,30.23,30.18,5,1,5,0.00
2014-5-22,86.2,67.0,53.6,59.9,52.4,46.3,79,61,39,30.20,30.06,4,1,4,0.00
2014-5-23,66.6,61.2,56.5,58.9,54.0,49.9,89,77,66,30.19,30.01,13,2,13,0.16
2014-5-24,75.1,61.7,55.4,54.6,50.7,47.1,81,68,47,30.24,30.17,6,1,6,0.00
2014-5-25,63.2,56.3,52.9,51.5,48.7,45.7,86,76,62,30.19,30.04,6,1,6,0.23
2014-5-26,71.5,59.0,52.2,52.6,48.1,43.3,90,70,44,30.23,30.04,13,2,13,0.01
2014-5-27,77.4,54.4,48.8,48.4,43.8,41.5,80,69,32,30.22,30.12,3,0,3,0.00
2014-5-28,71.1,61.8,53.3,50.2,47.7,46.6,78,62,42,30.15,30.13,4,2,4,0.02
2014-5-29,65.2,59.0,52.2,47.8,45.8,43.5,72,62,52,30.28,30.22,4,1,4,0.00
2014-5-30,78.1,55.9,46.6,52.2,44.4,40.0,82,68,38,30.23,30.03,7,1,7,0.00
2014-5-31,84.6,69.8,49.5,53.5,48.2,41.5,78,48,31,30.12,30.07,7,1,7,0.00
2014-6-1,82.1,64.3,52.0,55.3,49.3,44.2,77,60,37,30.16,30.03,9,1,9,0.00
2014-6-2,86.0,58.7,52.4,56.2,47.8,45.0,80,69,34,30.04,29.90,4,0,4,0.00
2014-6-3,67.9,64.2,54.0,51.6,50.2,46.3,75,61,54,30.15,30.06,12,2,12,0.00
2014-6-4,76.3,59.2,52.7,54.8,48.7,45.5,79,69,46,30.19,30.14,9,1,9,0.00
2014-6-5,84.1,64.3,48.6,53.3,46.6,41.9,82,56,28,30.22,30.11,5,1,5,0.00
2014-6-6,86.9,66.7,50.9,52.4,45.3,41.1,74,50,23,30.18,30.12,8,1,8,0.00
2014-6-7,85.7,67.3,54.9,56.2,50.0,45.3,76,56,31,30.25,30.16,6,1,6,0.00
2014-6-8,85.7,66.9,54.2,58.4,52.3,46.3,81,62,35,30.27,30.13,7,1,7,0.00
2014-6-9,79.0,62.8,54.9,53.0,48.9,43.3,81,62,38,30.21,30.13,6,1,7,0.02
2014-6-10,67.9,58.7,50.4,51.0,46.6,41.7,74,64,53,30.18,30.13,8,1,8,0.00
2014-6-11,85.7,65.3,48.2,55.2,47.7,41.3,81,57,28,30.13,29.88,6,1,6,0.00
2014-6-12,76.7,61.8,54.2,52.8,49.1,46.2,79,64,40,29.93,29.85,14,2,14,0.03
2014-6-13,56.9,54.3,52.0,52.3,49.1,44.7,89,83,70,30.15,29.90,12,3,12,0.38
2014-6-14,61.9,56.0,52.4,51.5,48.2,44.5,83,75,67,30.16,30.03,10,2,10,0.15
2014-6-15,66.1,54.9,50.0,55.2,49.3,45.4,89,82,67,30.03,29.89,8,1,8,0.15
2014-6-16,73.3,54.9,47.5,54.7,47.5,43.8,90,78,45,30.03,29.91,6,2,6,0.02
2014-6-17,63.5,54.3,49.9,52.7,48.2,45.8,89,80,67,30.17,30.02,5,2,6,0.15
2014-6-18,72.4,56.4,52.6,53.0,47.7,45.9,86,73,49,30.17,30.07,9,2,9,0.00
2014-6-19,84.2,69.2,53.3,56.0,52.8,46.6,81,58,34,30.08,29.99,12,2,12,0.01
2014-6-20,71.6,57.3,52.0,53.5,48.2,43.1,82,73,45,30.22,30.07,6,1,6,0.05
2014-6-21,82.1,61.3,48.2,51.7,44.5,39.0,74,56,31,30.20,30.08,6,1,6,0.00
2014-6-22,85.5,73.1,50.2,52.8,48.4,40.1,68,43,30,30.16,30.04,4,1,4,0.00
2014-6-23,86.2,67.7,56.5,55.4,48.9,43.6,68,52,33,30.13,30.04,6,1,6,0.00
2014-6-24,84.8,69.1,59.0,57.9,55.2,51.8,81,63,38,30.17,30.09,8,2,8,0.00
2014-6-25,86.0,66.4,58.0,60.9,54.0,50.6,82,66,42,30.08,29.83,3,0,3,0.00
2014-6-26,71.3,63.1,58.9,58.1,55.0,47.7,83,75,60,29.88,29.83,11,2,11,0.02
2014-6-27,72.9,61.5,57.1,57.6,54.2,48.3,85,78,56,29.90,29.78,12,2,12,0.07
2014-6-28,71.1,63.5,55.3,58.7,53.9,50.1,89,72,57,30.09,29.94,11,4,12,0.04
2014-6-29,74.3,62.7,55.1,56.3,52.2,48.7,81,69,53,30.28,30.09,11,2,11,0.00
2014-6-30,87.5,67.7,52.7,58.6,52.5,46.8,84,62,34,30.30,30.07,7,1,7,0.00
2014-7-1,104.0,75.5,57.4,61.8,54.4,48.6,77,53,22,30.07,29.78,7,1,7,0.00
2014-7-2,85.7,71.9,61.6,57.2,53.8,49.1,69,55,32,30.08,29.82,8,2,8,0.00
2014-7-3,74.2,63.8,58.3,54.6,50.9,46.0,79,63,49,30.16,30.07,6,1,6,0.00
2014-7-4,84.4,65.9,55.4,55.3,49.6,45.2,71,57,34,30.12,30.05,6,1,6,0.00
2014-7-5,77.0,67.1,56.5,56.9,52.6,49.0,79,61,40,30.19,30.08,8,1,8,0.00
2014-7-6,93.2,71.6,61.6,63.1,56.2,52.7,76,60,36,30.21,30.15,11,2,11,0.00
2014-7-7,91.3,73.0,64.3,65.5,59.5,54.9,80,64,42,30.19,30.08,6,1,6,0.00
2014-7-8,95.6,71.1,59.6,63.1,56.6,51.4,79,63,31,30.12,30.02,5,1,5,0.00
2014-7-9,92.5,73.6,58.5,59.4,53.7,47.3,71,52,32,30.07,29.97,4,1,4,0.00
2014-7-10,94.1,73.6,58.3,60.3,53.7,47.6,78,53,29,30.02,29.93,6,1,6,0.00
2014-7-11,99.0,76.5,57.6,60.5,53.8,47.7,74,49,24,30.07,29.97,6,1,6,0.00
2014-7-12,100.3,76.6,62.6,63.2,56.5,50.0,74,52,27,30.15,30.06,6,1,6,0.00
2014-7-13,92.2,75.8,61.6,62.7,55.2,47.4,61,50,36,30.16,30.06,6,1,6,0.00
2014-7-14,94.3,76.4,63.5,63.2,57.8,54.4,74,55,33,30.18,30.10,8,1,8,0.00
2014-7-15,97.6,75.8,61.6,64.0,57.5,52.8,79,57,29,30.16,30.03,5,1,5,0.00
2014-7-16,99.9,77.0,60.1,61.9,55.0,49.1,71,49,24,30.07,29.95,5,1,5,0.00
2014-7-17,88.2,69.6,58.1,58.0,53.6,50.8,78,59,34,30.09,29.99,14,2,14,0.00
2014-7-18,82.3,68.4,55.4,57.0,52.8,47.8,77,59,41,30.15,30.06,12,2,12,0.00
2014-7-19,79.4,67.5,60.1,62.5,57.5,53.0,83,71,55,30.12,29.97,12,3,12,0.00
2014-7-20,65.0,60.1,56.5,57.1,53.7,50.8,86,80,67,30.04,29.99,6,1,6,0.11
2014-7-21,83.3,66.4,55.8,57.2,52.2,48.2,86,64,35,30.09,30.02,6,1,7,0.00
2014-7-22,70.6,62.6,55.1,57.1,53.1,47.4,81,71,62,30.13,30.05,5,1,5,0.01
2014-7-23,63.0,60.3,56.0,62.2,57.1,54.2,99,89,76,30.12,29.99,9,2,9,0.08
2014-7-24,62.3,56.8,55.1,62.0,56.4,54.0,99,99,95,30.26,30.10,8,2,8,0.00
2014-7-25,125.5,76.8,66.2,84.1,42.1,-17.3,99,37,1,30.19,30.13,4,1,4,0.00
2014-7-26,139.0,82.4,62.1,94.1,55.0,-13.8,99,58,1,30.22,30.15,5,1,5,0.01
2014-7-27,90.4,71.3,56.2,83.9,49.6,35.5,99,56,17,30.23,30.12,6,1,6,0.00
2014-7-28,96.8,71.3,58.3,57.2,52.6,46.3,81,55,23,30.17,30.10,5,1,5,0.00
2014-7-29,94.3,67.5,59.8,56.3,50.1,46.5,72,55,27,30.19,30.10,6,1,6,0.00
2014-7-30,94.3,73.3,58.3,58.8,52.0,42.8,80,51,26,30.20,30.13,7,1,7,0.00
2014-7-31,95.6,74.1,58.0,59.4,49.6,42.3,63,44,27,30.17,30.07,8,1,8,0.00
2014-8-1,90.9,73.5,60.3,59.3,52.0,45.0,64,48,34,30.12,29.99,5,1,5,0.00
2014-8-2,88.4,72.4,60.8,63.8,57.8,52.1,82,62,43,30.05,29.99,4,1,4,0.07
2014-8-3,96.8,75.9,61.6,64.5,58.4,54.2,81,58,31,30.12,29.97,6,1,6,0.00
2014-8-4,99.7,76.3,59.8,61.6,55.3,50.5,77,52,25,30.05,29.95,5,1,5,0.00
2014-8-5,85.3,69.4,58.9,58.9,53.8,49.4,81,60,39,30.13,30.01,6,1,6,0.00
2014-8-6,88.9,72.1,60.3,62.2,56.5,51.2,84,60,41,30.20,30.10,5,1,5,0.00
2014-8-7,89.3,71.1,58.9,59.9,53.8,47.2,79,56,36,30.14,30.06,6,1,6,0.00
2014-8-8,87.1,70.1,59.0,56.1,50.4,47.2,71,52,31,30.17,30.10,6,1,6,0.00
2014-8-9,89.1,71.1,55.8,55.5,49.3,45.1,71,49,29,30.21,30.13,9,1,9,0.00
2014-8-10,95.8,71.8,55.3,58.9,52.3,45.5,77,53,29,30.18,30.03,5,1,5,0.00
2014-8-11,102.6,80.4,62.1,64.0,58.4,50.8,78,50,26,30.04,29.85,5,1,5,0.01
2014-8-12,85.0,73.3,67.0,62.8,59.6,55.7,86,63,41,29.95,29.86,13,1,13,0.14
2014-8-13,138.4,84.4,61.4,94.5,57.4,-12.0,99,59,1,30.06,29.92,8,2,8,0.15
2014-9-4,67.1,56.7,32.8,66.9,56.4,32.5,99,99,99,30.17,30.17,0,0,0,0.00
2014-12-9,58.0,54.7,52.6,52.2,50.1,48.9,88,85,81,29.94,29.75,8,2,8,0.00
2014-12-10,65.2,56.6,51.1,53.3,49.4,44.2,93,78,52,29.75,29.29,23,6,23,0.00
2014-12-11,55.1,50.6,47.7,48.0,44.9,41.9,91,81,67,29.62,29.19,28,4,28,0.00
2014-12-12,52.6,49.2,45.7,46.4,44.2,42.1,89,83,77,30.08,29.55,15,3,15,0.00
2014-12-13,52.6,45.4,38.3,47.2,41.8,34.7,91,87,81,30.27,30.08,3,0,3,0.00
2014-12-14,57.6,42.9,34.2,44.8,34.6,30.1,90,74,51,30.25,30.02,10,1,10,0.00
2014-12-15,57.4,49.4,40.3,34.5,31.1,28.4,63,49,40,30.03,29.86,17,5,17,0.00
2014-12-16,50.4,48.3,45.0,41.1,35.4,29.6,72,61,45,29.89,29.85,14,2,14,0.00
2014-12-17,49.7,46.4,44.3,44.7,40.8,34.3,88,81,66,29.95,29.83,2,0,2,0.00
2014-12-18,49.7,46.7,44.3,45.9,43.6,41.0,92,89,85,29.98,29.76,7,1,7,0.00
2014-12-19,51.5,47.2,44.1,45.6,43.3,39.5,93,86,77,29.99,29.81,11,2,11,0.00
2014-12-20,55.1,48.1,44.5,52.6,45.3,40.6,95,90,83,29.90,29.47,22,3,22,0.00
2014-12-21,53.8,51.3,49.7,50.5,47.6,45.7,90,87,83,30.15,29.57,8,2,9,0.00
2014-12-22,51.5,46.2,40.3,46.1,41.7,36.7,89,84,76,30.41,30.15,5,0,5,0.00
2014-12-23,53.3,46.5,41.4,50.3,42.8,37.9,91,87,76,30.36,30.08,12,2,12,0.00
2014-12-24,44.6,42.0,40.1,41.3,39.5,37.7,92,91,88,30.09,29.92,6,1,7,0.00
2014-12-25,50.0,42.5,39.4,45.2,39.5,37.0,93,89,81,30.33,30.08,5,0,5,0.00
2014-12-26,46.3,41.3,39.2,41.6,38.3,35.6,92,89,83,30.42,30.31,4,0,4,0.00
2014-12-27,47.2,43.8,41.4,44.6,41.5,38.9,94,92,89,30.35,30.05,15,2,15,0.00
2014-12-28,44.3,40.9,39.1,41.3,38.4,36.6,92,91,87,30.25,30.10,6,0,6,0.00
2014-12-29,50.9,38.8,31.7,40.6,33.4,26.7,92,81,63,30.75,30.19,6,0,6,0.00
2014-12-30,45.9,32.1,25.7,29.5,23.9,20.7,84,72,51,30.87,30.75,6,0,6,0.00
2014-12-31,46.4,33.1,26.3,31.1,24.7,21.0,83,72,54,30.75,30.44,4,0,4,0.00
2015-1-1,49.3,34.5,27.0,34.1,26.5,21.9,82,73,55,30.44,30.23,5,0,5,0.00
2015-1-2,41.4,37.2,32.9,38.0,32.6,27.1,90,83,77,30.25,30.11,10,1,10,0.00